Regional Weather Roundup
Issued by NWS

Home | Current Version | Previous Version | Graphics & Text | Print | Product List | Glossary On
Versions: 1 2 3 4 5 6 7 8 9 10 11 12 13 14 15 16 17 18 19 20 21 22 23 24 25 26 27 28 29 30 31 32 33 34 35 36 37 38 39 40 41 42 43 44 45 46 47 48 49 50
000
ASUS43 KDMX 011407
RWRIA

WEATHER ROUNDUP FOR IOWA
NATIONAL WEATHER SERVICE DES MOINES IA
900 AM CDT FRI AUG 01 2014

NOTE: "FAIR" INDICATES FEW OR NO CLOUDS BELOW 12,000 FEET WITH NO
SIGNIFICANT WEATHER AND/OR OBSTRUCTIONS TO VISIBILITY.

* - THESE STATIONS ARE NOT NWS STATIONS...THUS NOT UNDER NWS
QUALITY CONTROL.  THEY ALSO DO NOT REPORT WEATHER SUCH
AS PRECIPITATION OR FOG.

IAZ001>003-012>014-020>022-031>034-043>046-011500-
   NORTHWEST IOWA

CITY           SKY/WX    TMP DP  RH WIND       PRES   REMARKS
CARROLL *      SUNNY     66  61  82 CALM      30.11R
CHEROKEE *     SUNNY     64  61  88 CALM      30.11S
DENISON *      SUNNY     66  64  94 CALM      30.09R
LE MARS *      SUNNY     64  59  82 CALM      30.11S
ORANGE CITY *  SUNNY     70  61  73 CALM      30.11S
SHELDON *      SUNNY     66  61  82 CALM      30.10S
SIOUX CITY     SUNNY     66  61  84 CALM      30.10S
SPENCER        SUNNY     69  61  75 NW5       30.10F
STORM LAKE *   SUNNY     66  64  94 CALM      30.12S
$$

IAZ055>058-069>071-079>083-090>094-011500-
   SOUTHWEST IOWA

CITY           SKY/WX    TMP DP  RH WIND       PRES   REMARKS
ATLANTIC *     CLOUDY    68  63  83 CALM      30.09S
AUDUBON *      SUNNY     72  66  83 CALM      30.11S
CLARINDA *     LGT RAIN  64  64 100 SW6       30.10S
COUNCIL BLFS * CLOUDY    68  64  88 CALM      30.08R
CRESTON *      SUNNY     70  61  73 CALM      30.10S
HARLAN  *      CLOUDY    64  64 100 CALM      30.13R
LAMONI         MOSUNNY   70  62  76 W3        30.11R
RED OAK *      CLOUDY    68  64  88 S6        30.08R
SHENANDOAH *   CLOUDY    68  63  83 E8        30.08S
$$

IAZ047>049-059>061-072>074-084-011500-
   CENTRAL IOWA

CITY           SKY/WX    TMP DP  RH WIND       PRES   REMARKS
AMES           SUNNY     69  61  75 CALM      30.10R
ANKENY *       SUNNY     70  61  73 CALM      30.10R
CHARITON *     CLOUDY    68  63  83 NW6       30.10R
DES MOINES     MOSUNNY   73  62  68 CALM      30.09R
GRINNELL*      SUNNY     68  63  83 CALM      30.10S
KNOXVILLE *    SUNNY     70  63  78 NW5       30.08S
MARSHALLTOWN   SUNNY     66  62  87 NW6       30.09R
PELLA *        SUNNY     72  63  73 CALM      30.10S
PERRY *          N/A     68  63  83 CALM      30.10S
$$

IAZ004>006-015-016-023>025-035-036-011500-
   NORTH CENTRAL IOWA

CITY           SKY/WX    TMP DP  RH WIND       PRES   REMARKS
ALGONA *       SUNNY     70  61  73 NW6       30.10S
CLARION *      SUNNY     66  63  88 CALM      30.11R
ESTHERVILLE    SUNNY     67  62  84 W5        30.10S
FORT DODGE *   SUNNY     66  61  82 CALM      30.11S
MASON CITY     SUNNY     70  63  78 W6        30.11S
FOREST CITY *  SUNNY     68  64  88 CALM      30.10S
IOWA FALLS *     N/A     66  61  82 NW5       30.11S
$$

IAZ007>011-017>019-026>030-037>042-050>054-066-011500-
   NORTHEAST IOWA

CITY           SKY/WX    TMP DP  RH WIND       PRES   REMARKS
CEDAR RAPIDS   SUNNY     69  65  86 CALM      30.08R
CHARLES CITY * SUNNY     68  63  83 CALM      30.10S
CLINTON *      MOSUNNY   72  63  73 SW8       30.12R
DECORAH *      SUNNY     68  59  73 CALM      30.09S
DUBUQUE        SUNNY     69  62  78 CALM      30.10R
MONTICELLO *   SUNNY     68  64  88 CALM      30.09R
OELWEIN *      SUNNY     68  63  83 CALM      30.10S
WATERLOO       SUNNY     69  62  78 CALM      30.08R
$$

IAZ064-065-067-068-078-011500-
   EAST CENTRAL IOWA

CITY           SKY/WX    TMP DP  RH WIND       PRES   REMARKS
DAVENPORT      SUNNY     72  61  68 S9        30.09F
IOWA CITY      SUNNY     71  66  84 SE5       30.10R
MT. PLEASANT * MOSUNNY   73  63  68 SE7       30.09S
MUSCATINE *    PTSUNNY   72  63  73 S7        30.09S
QUAD CITIES    MOSUNNY   70  63  78 SW7       30.09S
$$

IAZ062-063-075>077-085>089-095>099-011500-
   SOUTHEAST IOWA

CITY           SKY/WX    TMP DP  RH WIND       PRES   REMARKS
BURLINGTON     CLOUDY    67  63  87 SE6       30.09S
FAIRFIELD *    SUNNY     72  63  73 W3        30.09R
FORT MADISON * MOSUNNY   70  66  88 E3        30.10S
KEOKUK *       PTSUNNY   70  64  83 E5        30.09R
OSKALOOSA *      N/A     68  64  88 CALM      30.10R
CENTERVILLE *  SUNNY     72  63  73 W5        30.11R
OTTUMWA        SUNNY     71  64  78 N5        30.09R
WASHINGTON *   MOSUNNY   70  66  88 CALM      30.09R
$$

ABBREVIATIONS USED IN REMARKS
   TC - TEMPERATURES IN CELSIUS
  WCI - WIND CHILL INDEX
   HX - HEAT INDEX
  VSB - VISIBILITY
$$




USA.gov is the U.S. government's official web portal to all federal, state and local government web resources and services.